Location: ??????????
(54.8537°N, 38.8755°E)
Time: 02:47:44
(UTC+00:00)

Vanguard 2 Rocket - Pass Details

Date: 16 September 2024
Orbit: 553 x 3298 km, 32.9° (Epoch: 10 October)

Event Time Altitude Azimuth Distance (km) Brightness Sun altitude
Rises 01:43:40 0° 249° (WSW) 5,383 - -11.4°
Reaches altitude 10° 01:47:22 10° 240° (WSW) 4,751 - -10.9°
Exits shadow 01:47:50 11° 238° (WSW) 4,682 9.9 -10.8°
Maximum altitude 01:59:02 31° 186° (S) 4,188 10.0 -9.3°
Drops below altitude 10° 02:14:18 10° 135° (SE) 6,228 11.6 -7.2°
Sets 02:20:09 0° 126° (SE) 7,266 12.1 -6.4°
